STARLINK-3069, 49176

Orbit data source: Space-Track

STARLINK-3069, 49176 is a payload satellite owned by SpaceX/Seattle (US) in LEO that was launched on Tue, 14 Sep 2021 UTC via an FALCON 9 launch vehicle from the Air Force Western Test Range (AFWTR). Payload-class satellites include a variety of spacecraft equipped with specific instruments for various scientific and technological missions. These include communications satellites like Starlink; space stations such as the ISS; scientific satellites like the Hubble; Earth observation satellites from companies like Planet Labs, Umbra, and HawkEye 360; GPS; miniature CubeSats for education and research; and military/defense satellites.

Loading next visibility...
Identifier
49176, 2021-082AY
Orbit
LEO
Country
Flag of USUS
Related business
Manufacturer
SpaceX/Seattle
Mission
Operational Commercial Communications
Bus & Motor
STARLINK, Unknown motor
Mass
297 kg wet, ~275 kg dry
Launch date (UTC)
2021-09-14 (4 years ago)
Launch vehicle
FALCON 9
Launch site
Air Force Western Test Range (AFWTR)
Object type
Payload
Rocket body
Debris
Shape & HBR
Box + 1 Pan, 10.1 m
Radar Cross Section
13.562 m², Large (>1 m²)

Expand to show TLE details & history
Last TLE update: 22 hours ago

TLE from 22 hours ago
0 STARLINK-3069
1 49176U 21082AY  25286.36589597 -.00000162  00000-0 -58208-5 0  9994
2 49176  69.9992 265.9025 0002811 269.2690  90.8147 14.98333297224891
Epoch: 2025-10-13T08:46Z
TLE epoch observation values (Epoch: 2025-10-13T08:46:53.411Z)
Latitude
-0.00004°
Longitude
112.01023°
Altitude
574.498 km
Speed
7.574 km/s
True Right ascension
17h 43m 36s
True Declination
0° 00' 00"
Sunlit
Object was in daylight at epoch
Visualization orbit readout
Latitude
Unknown
Longitude
Unknown
Altitude
Unknown
Speed
Unknown
Apparent Right ascension
Unknown
Apparent Declination
Unknown
Sunlit
N/A
Visualization observer readout
Local Sidereal Time
01:26:51
Azimuth
Unknown
Elevation
Unknown
Doppler factor
Unknown
Orbital elements
Apogee altitude
571.947 km
Perigee altitude
568.041 km
Semi-major axis
6,948.131 km
Eccentricity
0.00028
Inclination
69.9992°
RAAN
265.9025°
Arg. of periapsis
269.269°
True anomaly
90.84691°
Mean anomaly
90.8147°
Eccentric anomaly
90.8308°
Mean motion
3.7475 °/min
Orbital period
96.06 mins
BSTAR
-0.0000058208
Loading maneuver chart data...
Computing Atmospheric mass density...
Loading historical data...
Loading historical data...
Loading historical data...
Loading historical data...
Loading historical data...
Loading historical data...
Loading historical data...

Documentation

Showing up to 5 results
|